| time (UTC) | temp F | wind direction | speed MPH | gust MPH | rain 1hr in | rain 24hr in | rain mn in | humidity % | barometer mb |
| 20260506190001 | 60 | 360 | 0.0 | 3.0 | 0.15 | 0.40 | 0.38 | 79 | 1005.5 |
| 20260506184603 | 59 | 348 | 0.0 | 3.0 | 0.20 | 0.40 | 0.38 | 80 | 1005.7 |
| 20260506184502 | 59 | 348 | 0.0 | 1.0 | 0.21 | 0.40 | 0.38 | 80 | 1005.7 |
| 20260506183109 | 59 | 341 | 1.0 | 2.0 | 0.25 | 0.40 | 0.38 | 80 | 1005.7 |
| 20260506181600 | 58 | 338 | 0.0 | 6.0 | 0.27 | 0.38 | 0.36 | 79 | 1006.0 |
| 20260506180057 | 59 | 18 | 0.0 | 1.0 | 0.17 | 0.26 | 0.24 | 79 | 1006.0 |
| 20260506174555 | 60 | 218 | 0.0 | 2.0 | 0.12 | 0.20 | 0.18 | 79 | 1006.2 |
| 20260506173054 | 60 | 218 | 0.0 | 0.0 | 0.08 | 0.15 | 0.13 | 79 | 1006.4 |
| 20260506171557 | 60 | 218 | 0.0 | 0.0 | 0.06 | 0.11 | 0.09 | 79 | 1006.6 |
| 20260506170052 | 59 | 218 | 0.0 | 1.0 | 0.04 | 0.09 | 0.07 | 78 | 1006.5 |
| 20260506164557 | 59 | 218 | 0.0 | 0.0 | 0.03 | 0.08 | 0.06 | 77 | 1006.6 |
| 20260506163049 | 59 | 218 | 0.0 | 3.0 | 0.03 | 0.07 | 0.05 | 77 | 1007.1 |
| 20260506161546 | 60 | 217 | 0.0 | 1.0 | 0.01 | 0.05 | 0.03 | 77 | 1007.0 |
| 20260506160046 | 60 | 217 | 0.0 | 0.0 | 0.02 | 0.05 | 0.03 | 77 | 1007.1 |
| 20260506154601 | 60 | 217 | 0.0 | 0.0 | 0.02 | 0.05 | 0.03 | 76 | 1007.6 |
| 20260506153042 | 59 | 217 | 0.0 | 0.0 | 0.02 | 0.04 | 0.02 | 75 | 1007.9 |
| 20260506151541 | 59 | 217 | 0.0 | 0.0 | 0.02 | 0.04 | 0.02 | 74 | 1008.1 |
| 20260506150042 | 60 | 217 | 0.0 | 0.0 | 0.01 | 0.03 | 0.01 | 75 | 1008.1 |
| 20260506144547 | 60 | 217 | 0.0 | 0.0 | 0.01 | 0.03 | 0.01 | 73 | 1008.1 |
| 20260506143039 | 60 | 217 | 0.0 | 3.0 | 0.00 | 0.02 | 0.00 | 71 | 1008.1 |
| 20260506141538 | 60 | 65 | 0.0 | 1.0 | 0.00 | 0.02 | 0.00 | 71 | 1008.1 |
| 20260506140052 | 60 | 65 | 2.0 | 4.0 | 0.00 | 0.02 | 0.00 | 70 | 1008.2 |
| 20260506134532 | 60 | 100 | 0.0 | 2.0 | 0.00 | 0.02 | 0.00 | 70 | 1008.1 |
| 20260506133042 | 59 | 88 | 1.0 | 6.0 | 0.00 | 0.02 | 0.00 | 71 | 1008.1 |
| 20260506131531 | 59 | 109 | 0.0 | 6.0 | 0.00 | 0.02 | 0.00 | 72 | 1008.7 |
| 20260506130026 | 58 | 261 | 0.0 | 6.0 | 0.00 | 0.02 | 0.00 | 73 | 1008.9 |
| 20260506124519 | 58 | 155 | 0.0 | 2.0 | 0.00 | 0.02 | 0.00 | 74 | 1008.3 |
| 20260506123017 | 57 | 161 | 0.0 | 4.0 | 0.00 | 0.02 | 0.00 | 75 | 1008.9 |
| 20260506121513 | 56 | 27 | 0.0 | 4.0 | 0.00 | 0.02 | 0.00 | 78 | 1008.6 |
| 20260506120018 | 56 | 65 | 0.0 | 2.0 | 0.00 | 0.02 | 0.00 | 79 | 1008.8 |
| 20260506114510 | 55 | 65 | 0.0 | 2.0 | 0.00 | 0.02 | 0.00 | 80 | 1008.6 |
| 20260506113011 | 55 | 55 | 0.0 | 0.0 | 0.00 | 0.02 | 0.00 | 81 | 1008.7 |
| 20260506111509 | 54 | 55 | 0.0 | 0.0 | 0.00 | 0.02 | 0.00 | 81 | 1008.6 |
| 20260506110007 | 53 | 55 | 0.0 | 0.0 | 0.00 | 0.02 | 0.00 | 81 | 1008.7 |
| 20260506104507 | 52 | 55 | 0.0 | 0.0 | 0.00 | 0.02 | 0.00 | 81 | 1008.6 |
| 20260506103004 | 52 | 55 | 0.0 | 0.0 | 0.00 | 0.02 | 0.00 | 80 | 1008.6 |
| 20260506101559 | 52 | 55 | 0.0 | 0.0 | 0.00 | 0.02 | 0.00 | 79 | 1008.6 |
| 20260506094555 | 52 | 55 | 0.0 | 0.0 | 0.00 | 0.02 | 0.00 | 79 | 1008.5 |
| 20260506093055 | 53 | 55 | 0.0 | 0.0 | 0.00 | 0.02 | 0.00 | 79 | 1008.6 |
| 20260506091557 | 53 | 55 | 0.0 | 0.0 | 0.00 | 0.02 | 0.00 | 79 | 1008.8 |
| 20260506090050 | 54 | 55 | 0.0 | 0.0 | 0.00 | 0.02 | 0.00 | 79 | 1008.7 |
| 20260506084553 | 54 | 55 | 0.0 | 0.0 | 0.00 | 0.02 | 0.00 | 79 | 1008.7 |
| 20260506083051 | 54 | 55 | 0.0 | 2.0 | 0.00 | 0.02 | 0.00 | 79 | 1009.0 |
| 20260506081547 | 54 | 55 | 0.0 | 0.0 | 0.00 | 0.02 | 0.00 | 78 | 1008.9 |
| 20260506073046 | 55 | 55 | 0.0 | 1.0 | 0.00 | 0.02 | 0.00 | 78 | 1008.9 |
| 20260506071543 | 55 | 55 | 0.0 | 0.0 | 0.00 | 0.02 | 0.00 | 78 | 1008.8 |
| 20260506061541 | 55 | 55 | 0.0 | 0.0 | 0.00 | 0.02 | 0.00 | 78 | 1008.9 |
| 20260506044535 | 56 | 55 | 0.0 | 0.0 | 0.00 | 0.02 | 0.00 | 78 | 1008.7 |
| 20260506043036 | 56 | 55 | 0.0 | 0.0 | 0.00 | 0.02 | 0.00 | 78 | 1008.9 |
| 20260506041531 | 56 | 55 | 0.0 | 0.0 | 0.00 | 0.02 | 0.00 | 78 | 1009.0 |
| 20260506040037 | 56 | 55 | 0.0 | 0.0 | 0.00 | 0.02 | 0.00 | 78 | 1008.9 |
| 20260506034530 | 56 | 55 | 0.0 | 0.0 | 0.00 | 0.02 | 0.02 | 78 | 1008.8 |
| 20260506033033 | 56 | 55 | 0.0 | 0.0 | 0.00 | 0.02 | 0.02 | 78 | 1008.7 |
| 20260506031528 | 56 | 55 | 0.0 | 0.0 | 0.00 | 0.02 | 0.02 | 78 | 1008.4 |
| 20260506030026 | 56 | 55 | 0.0 | 0.0 | 0.00 | 0.02 | 0.02 | 78 | 1008.6 |
| 20260506024529 | 56 | 55 | 0.0 | 0.0 | 0.00 | 0.02 | 0.02 | 78 | 1008.6 |
| 20260506023029 | 56 | 55 | 0.0 | 0.0 | 0.00 | 0.02 | 0.02 | 78 | 1008.6 |
| 20260506021531 | 56 | 55 | 0.0 | 0.0 | 0.00 | 0.02 | 0.02 | 77 | 1008.4 |
| 20260506020022 | 56 | 55 | 0.0 | 0.0 | 0.00 | 0.02 | 0.02 | 75 | 1008.3 |
| 20260506014521 | 56 | 55 | 0.0 | 2.0 | 0.00 | 0.02 | 0.02 | 73 | 1008.2 |
| 20260506013018 | 57 | 55 | 0.0 | 0.0 | 0.00 | 0.02 | 0.02 | 72 | 1008.2 |
| 20260506011515 | 58 | 55 | 0.0 | 1.0 | 0.00 | 0.02 | 0.02 | 72 | 1007.8 |
| 20260506010030 | 58 | 55 | 0.0 | 0.0 | 0.00 | 0.02 | 0.02 | 70 | 1008.1 |
| 20260506004515 | 58 | 55 | 0.0 | 1.0 | 0.00 | 0.02 | 0.02 | 69 | 1007.6 |
| 20260506003010 | 59 | 55 | 0.0 | 0.0 | 0.00 | 0.02 | 0.02 | 69 | 1007.4 |
| 20260506001508 | 59 | 55 | 0.0 | 2.0 | 0.00 | 0.02 | 0.02 | 68 | 1007.4 |
| 20260506000007 | 59 | 55 | 0.0 | 3.0 | 0.00 | 0.02 | 0.02 | 68 | 1007.6 |
| 20260505234510 | 60 | 5 | 0.0 | 0.0 | 0.00 | 0.02 | 0.02 | 68 | 1007.8 |
| 20260505233004 | 60 | 5 | 0.0 | 1.0 | 0.00 | 0.02 | 0.02 | 67 | 1007.3 |
| 20260505231600 | 61 | 5 | 0.0 | 2.0 | 0.00 | 0.02 | 0.02 | 67 | 1006.9 |
| 20260505224557 | 61 | 5 | 0.0 | 1.0 | 0.00 | 0.02 | 0.02 | 66 | 1006.7 |
| 20260505223056 | 62 | 5 | 0.0 | 2.0 | 0.00 | 0.02 | 0.02 | 65 | 1006.4 |
| 20260505221558 | 62 | 5 | 0.0 | 1.0 | 0.01 | 0.02 | 0.02 | 66 | 1006.5 |
| 20260505220056 | 61 | 5 | 0.0 | 1.0 | 0.02 | 0.02 | 0.02 | 66 | 1006.5 |
| 20260505214618 | 61 | 5 | 0.0 | 0.0 | 0.02 | 0.02 | 0.02 | 66 | 1005.9 |
| 20260505213120 | 62 | 5 | 0.0 | 6.0 | 0.02 | 0.02 | 0.02 | 63 | 1006.2 |
| 20260505211545 | 63 | 165 | 2.0 | 7.0 | 0.01 | 0.01 | 0.01 | 63 | 1006.4 |
| 20260505210041 | 65 | 201 | 2.0 | 11.0 | 0.00 | 0.00 | 0.00 | 57 | 1006.5 |
| 20260505203031 | 79 | 237 | 3.0 | 8.0 | 0.00 | 0.00 | 0.00 | 21 | 1003.3 |
| 20260505201524 | 80 | 267 | 8.0 | 19.0 | 0.00 | 0.00 | 0.00 | 20 | 1002.9 |
| 20260505200015 | 81 | 259 | 3.0 | 17.0 | 0.00 | 0.00 | 0.00 | 20 | 1002.6 |
| 20260505194515 | 82 | 360 | 4.0 | 15.0 | 0.00 | 0.00 | 0.00 | 20 | 1002.8 |
| 20260505193013 | 82 | 278 | 2.0 | 12.0 | 0.00 | 0.00 | 0.00 | 20 | 1002.7 |
| 20260505191512 | 82 | 132 | 4.0 | 18.0 | 0.00 | 0.00 | 0.00 | 20 | 1002.9 |